Regional Weather Roundup
Issued by NWS Green Bay, WI

Home | Current Version | Previous Version | Graphics & Text | Print | Product List | Glossary Off
Versions: 1 2 3 4 5 6 7 8 9 10 11 12 13 14 15 16 17 18 19 20 21 22 23 24 25 26 27 28 29 30 31 32 33 34 35 36 37 38 39 40 41 42 43 44 45 46 47 48 49 50

000
ASUS43 KGRB 211110
RWRGRB

NORTH-CENTRAL AND NORTHEAST WISCONSIN REGIONAL WEATHER ROUNDUP
NATIONAL WEATHER SERVICE GREEN BAY WI
600 AM CDT SUN SEP 21 2014

WIZ005-009-010>012-018-019-211200-
NORTH CENTRAL WISCONSIN

CITY           SKY/WX    TMP DP  RH WIND       PRES   REMARKS
IRONWOOD       CLOUDY    48  48 100 N7        29.85R
MANITOWISH WTR LGT RAIN  50  50 100 N10G17    29.82R
ARBOR VITAE    LGT RAIN  52  50  92 N15G22    29.80R
EAGLE RIVER    RAIN      51  50  98 N12G18    29.79R
LAND O LAKES   LGT RAIN  50  49  95 N9        29.81R
RHINELANDER    LGT RAIN  51  50  96 N5        29.78R
PHILLIPS       DRIZZLE   52  51  97 N7G17     29.80R
ANTIGO         CLOUDY    51  50  96 N9        29.74R
TOMAHAWK       RAIN      52  50  95 NW6       29.79R
MERRILL        LGT RAIN  52  52  99 N7        29.76R
$$

WIZ013-073-211200-
NORTHEAST WISCONSIN

CITY           SKY/WX    TMP DP  RH WIND       PRES   REMARKS
IRON MOUNTAIN  LGT RAIN  53  50  89 N13       29.72R
MARINETTE      CLOUDY    54  50  87 N8        29.67R
OCONTO         CLOUDY    54  54 100 N8        29.68R
$$

WIZ017-030-035>037-045-211200-
CENTRAL WISCONSIN

CITY           SKY/WX    TMP DP  RH WIND       PRES   REMARKS
MEDFORD        DRIZZLE   52  51  96 NW8       29.78R
WAUSAU         LGT RAIN  53  52  96 NW9       29.74R
MOSINEE        LGT RAIN  52  52 100 NW9       29.75R
MARSHFIELD     LGT RAIN  53  51  93 NW9       29.78R FOG
WISC RAPIDS    LGT RAIN  53  51  93 NW13      29.78R
STEVENS POINT  LGT RAIN  50  49  97 NW6       29.75R
WAUPACA        LGT RAIN  56  54  94 W12       29.72R
SHAWANO        DRIZZLE   56  54  92 NW3       29.71R
CLINTONVILLE   CLOUDY    55  54  94 NW7       29.70R
$$

WIZ038-039-048-051-211200-
FOX VALLEY

CITY           SKY/WX    TMP DP  RH WIND       PRES   REMARKS
NWS GREEN BAY  RAIN      56  54  93 NW13      29.68R
APPLETON       CLOUDY    54  54 100 W15       29.70R
OSHKOSH        CLOUDY    55  52  89 W13G22    29.70R
FOND DU LAC    CLOUDY    55  50  83 W13G20    29.71R
$$

WIZ022-050-052-211200-
EAST CENTRAL WISCONSIN

CITY           SKY/WX    TMP DP  RH WIND       PRES   REMARKS
STURGEON BAY   CLOUDY    55  52  88 N14       29.67R
MANITOWOC      LGT RAIN  57  54  89 W13       29.65R
SHEBOYGAN      CLOUDY    56  51  84 W17G23    29.67S
$$

LMZ563-521-522-541>543-211200-
LAKESHORE

STATION/POSITION TIME  TEMP    WIND        PRES    VSBY  WAVE
                       AIR SEA DIR/SP/G                  HT/PER
                 (UTC) (F)     (DEG/KT/KT) (MB)    (MI)  (FT/S)
SHEBOYGAN LKSHOR 1100   57 53  270/ 14/ 19 1004.7S
KEWAUNEE LKSHORE 1100   55     300/  4/  8 1003.2R
NORTHPORT PIER   1100   56     340/ 21/ 25 1004.1R
N MID LAKE BUOY  1100   56 58  350/ 19/ 23 1002.6R         2/ 4
S GREEN BAY BUOY 1100   56     VRB 17/ 21  1005.9R
SISTER BAY LKSHO 1000           30/ 10/ 14   N/A
CHAMBERS ISLAND  1100   56     330/ 14/ 17 1004.4S
MENOMINEE LKSHOR 1100   55     320/ 10/ 11 1005.4R
$$



USA.gov is the U.S. government's official web portal to all federal, state and local government web resources and services.